Home   Weather   43°40'N, 70°23'W   Past weeks
Flag for USA

Past Weather in 43°40'N, 70°23'W, USA — Yesterday and Last 2 Weeks

Now
52 °F

Broken clouds.


Feels Like: 50 °F
Forecast: 53 / 40 °F
Wind: 7 mph from Southeast

Location: Portland - Portland International Jetport

Current Time: Oct 20, 2019 at 6:18:59 pm

Latest Report: Oct 20, 2019 at 4:51 pm


Visibility: 10 mi

Pressure: 30.08 "Hg

Humidity: 75%

Dew Point: 44 °F

Location of 43°40'N, 70°23'WLocation

Past Weather in 43°40'N, 70°23'W — Graph

°F

43°40'N, 70°23'W Temperature Yesterday

Maximum temperature yesterday: 58 °F (at 2:51 pm)
Minimum temperature yesterday: 38 °F (at 5:51 am)
Average temperature yesterday: 46 °F

High & Low Weather Summary for the Past Weeks

 TemperatureHumidityPressure
High70 °F (Oct 7, 3:51 pm)96% (Oct 14, 1:07 am)30.42 "Hg (Oct 14, 1:07 am)
Low33 °F (Oct 6, 5:51 am)32% (Oct 15, 12:51 pm)28.82 "Hg (Oct 17, 7:51 am)
Average53 °F75%30.01 "Hg
* Reported Oct 5 4:51 pm — Oct 20 4:51 pm, 43°40'N, 70°23'W. Weather by CustomWeather, © 2019

Note: Actual official high and low records may vary slightly from our data, if they occured in-between our weather recording intervals... More about our weather records

Advertising

43°40'N, 70°23'W Weather History for the Previous 24 Hours

Scroll right to see more
 ConditionsComfort  
Time TempWeatherWind HumidityBarometerVisibility
4:51 pm
Sun, Oct 20
52 °FBroken clouds.7 mph75%30.08 "Hg10 mi
3:51 pm54 °FScattered clouds.7 mph69%30.09 "Hg10 mi
2:51 pm54 °FBroken clouds.6 mph69%30.09 "Hg10 mi
1:51 pm54 °FBroken clouds.7 mph67%30.09 "Hg10 mi
12:51 pm52 °FOvercast.6 mph66%30.11 "Hg10 mi
11:51 am51 °FPartly sunny.5 mph66%30.13 "Hg10 mi
10:51 am49 °FMostly cloudy.No wind64%30.13 "Hg10 mi
9:51 am44 °FPartly sunny.3 mph73%30.12 "Hg10 mi
8:51 am39 °FPartly sunny.5 mph82%30.12 "Hg10 mi
7:51 am35 °FPartly sunny.3 mph88%30.11 "Hg10 mi
6:51 am34 °FPassing clouds.No wind85%30.11 "Hg10 mi
5:51 am34 °FClear.5 mph88%30.11 "Hg10 mi
4:51 am34 °FClear.No wind88%30.09 "Hg10 mi
3:51 am34 °FClear.5 mph88%30.08 "Hg10 mi
2:51 am35 °FClear.5 mph85%30.07 "Hg10 mi
1:51 am35 °FClear.5 mph85%30.07 "Hg10 mi
12:51 am38 °FClear.No wind83%30.06 "Hg10 mi
11:51 pm
Sat, Oct 19
40 °FClear.No wind77%30.05 "Hg10 mi
10:51 pm39 °FClear.No wind79%30.05 "Hg10 mi
9:51 pm43 °FClear.No wind74%30.04 "Hg10 mi
8:51 pm42 °FClear.5 mph76%30.03 "Hg10 mi
7:51 pm44 °FClear.No wind68%30.01 "Hg10 mi
6:51 pm48 °FClear.No wind56%29.99 "Hg10 mi
Weather by CustomWeather, © 2019

See weather overview